| time (UTC) | temp C | wind direction | speed KPH | gust KPH | rain 1hr cm | rain 24hr cm | rain mn cm | humidity % | barometer mb |
| 20260506024430 | 6 | 0.0 | 0.0 | 0.00 | 0.00 | 0.00 | 71 | 1013.6 | |
| 20260506023428 | 6 | 0.0 | 0.0 | 0.00 | 0.00 | 0.00 | 70 | 1013.6 | |
| 20260506022426 | 7 | 0.0 | 0.0 | 0.00 | 0.00 | 0.00 | 70 | 1013.6 | |
| 20260506021503 | 7 | 0.0 | 0.0 | 0.00 | 0.00 | 0.00 | 69 | 1013.6 | |
| 20260506020502 | 7 | 0.0 | 0.0 | 0.00 | 0.00 | 0.00 | 69 | 1013.6 | |
| 20260506015421 | 7 | 0.0 | 0.0 | 0.00 | 0.00 | 0.00 | 69 | 1013.6 | |
| 20260506014418 | 7 | 0.0 | 0.0 | 0.00 | 0.00 | 0.00 | 68 | 1013.7 | |
| 20260506013416 | 7 | 0.0 | 0.0 | 0.00 | 0.00 | 0.00 | 68 | 1013.7 | |
| 20260506012414 | 7 | 0.0 | 0.0 | 0.00 | 0.00 | 0.00 | 67 | 1013.8 | |
| 20260506011452 | 7 | 0.0 | 0.0 | 0.00 | 0.00 | 0.00 | 67 | 1013.8 | |
| 20260506010410 | 7 | 0.0 | 0.0 | 0.00 | 0.00 | 0.00 | 66 | 1013.7 | |
| 20260506005408 | 7 | 0.0 | 0.0 | 0.00 | 0.00 | 0.00 | 66 | 1013.9 | |
| 20260506004406 | 7 | 0.0 | 0.0 | 0.00 | 0.00 | 0.00 | 66 | 1013.9 | |
| 20260506003403 | 7 | 0.0 | 0.0 | 0.00 | 0.00 | 0.00 | 66 | 1014.0 | |
| 20260506002402 | 7 | 0.0 | 0.0 | 0.00 | 0.00 | 0.00 | 66 | 1014.0 | |
| 20260506001439 | 7 | 0.0 | 0.0 | 0.00 | 0.00 | 0.00 | 66 | 1014.0 | |
| 20260506000358 | 7 | 0.0 | 0.0 | 0.00 | 0.00 | 0.00 | 66 | 1014.0 | |
| 20260505235356 | 8 | 0.0 | 0.0 | 0.00 | 0.00 | 0.00 | 66 | 1014.0 | |
| 20260505234353 | 8 | 0.0 | 0.0 | 0.00 | 0.00 | 0.00 | 66 | 1014.0 | |
| 20260505233352 | 8 | 0.0 | 0.0 | 0.00 | 0.00 | 0.00 | 66 | 1014.1 | |
| 20260505232349 | 8 | 0.0 | 0.0 | 0.00 | 0.00 | 0.00 | 68 | 1014.1 | |
| 20260505231348 | 8 | 0.0 | 0.0 | 0.00 | 0.00 | 0.00 | 70 | 1014.1 | |
| 20260505230346 | 8 | 0.0 | 0.0 | 0.00 | 0.00 | 0.00 | 71 | 1014.1 | |
| 20260505225344 | 8 | 0.0 | 0.0 | 0.00 | 0.00 | 0.00 | 70 | 1014.0 | |
| 20260505224422 | 8 | 0.0 | 0.0 | 0.00 | 0.00 | 0.00 | 70 | 1013.9 | |
| 20260505223340 | 8 | 0.0 | 0.0 | 0.00 | 0.00 | 0.00 | 70 | 1014.0 | |
| 20260505222338 | 8 | 0.0 | 0.0 | 0.00 | 0.00 | 0.00 | 70 | 1013.9 | |
| 20260505221337 | 8 | 0.0 | 0.0 | 0.00 | 0.00 | 0.00 | 70 | 1013.9 | |
| 20260505220333 | 8 | 0.0 | 0.0 | 0.00 | 0.00 | 0.00 | 70 | 1013.9 | |
| 20260505215332 | 8 | 0.0 | 0.0 | 0.00 | 0.00 | 0.00 | 70 | 1013.9 | |
| 20260505214330 | 9 | 0.0 | 0.0 | 0.00 | 0.00 | 0.00 | 70 | 1014.0 | |
| 20260505213328 | 9 | 0.0 | 0.0 | 0.00 | 0.00 | 0.00 | 70 | 1013.9 | |
| 20260505212327 | 9 | 0.0 | 0.0 | 0.00 | 0.00 | 0.00 | 70 | 1013.8 | |
| 20260505211323 | 10 | 0.0 | 0.0 | 0.00 | 0.00 | 0.00 | 68 | 1013.8 | |
| 20260505210322 | 10 | 0.0 | 0.0 | 0.00 | 0.00 | 0.00 | 67 | 1013.8 | |
| 20260505205320 | 10 | 0.0 | 0.0 | 0.00 | 0.00 | 0.00 | 67 | 1013.7 | |
| 20260505204317 | 10 | 0.0 | 0.0 | 0.00 | 0.00 | 0.00 | 68 | 1013.6 | |
| 20260505203316 | 10 | 0.0 | 0.0 | 0.00 | 0.00 | 0.00 | 68 | 1013.5 | |
| 20260505202314 | 10 | 0.0 | 0.0 | 0.00 | 0.00 | 0.00 | 67 | 1013.4 | |
| 20260505201311 | 10 | 0.0 | 0.0 | 0.00 | 0.00 | 0.00 | 67 | 1013.3 | |
| 20260505200309 | 10 | 0.0 | 0.0 | 0.00 | 0.00 | 0.00 | 66 | 1013.2 | |
| 20260505195308 | 10 | 0.0 | 0.0 | 0.00 | 0.00 | 0.00 | 65 | 1013.2 | |
| 20260505194307 | 11 | 0.0 | 0.0 | 0.00 | 0.00 | 0.00 | 65 | 1013.1 | |
| 20260505193344 | 11 | 0.0 | 0.0 | 0.00 | 0.00 | 0.00 | 64 | 1013.1 | |
| 20260505192305 | 11 | 0.0 | 0.0 | 0.00 | 0.00 | 0.00 | 63 | 1012.9 | |
| 20260505191300 | 11 | 0.0 | 0.0 | 0.00 | 0.00 | 0.00 | 62 | 1012.9 | |
| 20260505190258 | 11 | 0.0 | 0.0 | 0.00 | 0.00 | 0.00 | 61 | 1012.9 | |
| 20260505185255 | 12 | 0.0 | 0.0 | 0.00 | 0.00 | 0.00 | 60 | 1012.8 | |
| 20260505184253 | 12 | 0.0 | 0.0 | 0.00 | 0.00 | 0.00 | 56 | 1012.6 | |
| 20260505183251 | 12 | 0.0 | 0.0 | 0.00 | 0.00 | 0.00 | 52 | 1012.5 | |
| 20260505182250 | 12 | 0.0 | 0.0 | 0.00 | 0.00 | 0.00 | 51 | 1012.5 | |
| 20260505181327 | 13 | 0.0 | 0.0 | 0.00 | 0.00 | 0.00 | 51 | 1012.5 | |
| 20260505180246 | 13 | 0.0 | 0.0 | 0.00 | 0.00 | 0.00 | 50 | 1012.5 | |
| 20260505175243 | 13 | 0.0 | 0.0 | 0.00 | 0.00 | 0.00 | 50 | 1012.5 | |
| 20260505174241 | 13 | 0.0 | 0.0 | 0.00 | 0.00 | 0.00 | 50 | 1012.5 | |
| 20260505173240 | 13 | 0.0 | 0.0 | 0.00 | 0.00 | 0.00 | 51 | 1012.6 | |
| 20260505172318 | 13 | 0.0 | 0.0 | 0.00 | 0.00 | 0.00 | 50 | 1012.5 | |
| 20260505171317 | 13 | 0.0 | 0.0 | 0.00 | 0.00 | 0.00 | 50 | 1012.5 | |
| 20260505170233 | 13 | 0.0 | 0.0 | 0.00 | 0.00 | 0.00 | 49 | 1012.5 | |
| 20260505165232 | 13 | 0.0 | 0.0 | 0.00 | 0.00 | 0.00 | 50 | 1012.4 | |
| 20260505164230 | 13 | 0.0 | 0.0 | 0.00 | 0.00 | 0.00 | 50 | 1012.5 | |
| 20260505163308 | 13 | 0.0 | 0.0 | 0.00 | 0.00 | 0.00 | 50 | 1012.5 | |
| 20260505162226 | 14 | 0.0 | 0.0 | 0.00 | 0.00 | 0.00 | 49 | 1012.5 | |
| 20260505161224 | 14 | 0.0 | 0.0 | 0.00 | 0.00 | 0.00 | 48 | 1012.5 | |
| 20260505160222 | 14 | 0.0 | 0.0 | 0.00 | 0.00 | 0.00 | 47 | 1012.5 | |
| 20260505153216 | 15 | 0.0 | 0.0 | 0.00 | 0.00 | 0.00 | 47 | 1012.5 | |
| 20260505152214 | 15 | 0.0 | 0.0 | 0.00 | 0.00 | 0.00 | 46 | 1012.5 | |
| 20260505151212 | 15 | 0.0 | 0.0 | 0.00 | 0.00 | 0.00 | 46 | 1012.5 | |
| 20260505150210 | 15 | 0.0 | 0.0 | 0.00 | 0.00 | 0.00 | 46 | 1012.6 | |
| 20260505140157 | 15 | 0.0 | 0.0 | 0.00 | 0.00 | 0.00 | 49 | 1012.7 | |
| 20260505130226 | 13 | 0.0 | 0.0 | 0.00 | 0.00 | 0.00 | 53 | 1012.8 | |
| 20260505124222 | 13 | 0.0 | 0.0 | 0.00 | 0.00 | 0.00 | 54 | 1012.9 | |
| 20260505123140 | 13 | 0.0 | 0.0 | 0.00 | 0.00 | 0.00 | 55 | 1013.0 | |
| 20260505122218 | 13 | 0.0 | 0.0 | 0.00 | 0.00 | 0.00 | 55 | 1012.9 | |
| 20260505121136 | 13 | 0.0 | 0.0 | 0.00 | 0.00 | 0.00 | 55 | 1012.9 | |
| 20260505120133 | 13 | 0.0 | 0.0 | 0.00 | 0.00 | 0.00 | 55 | 1012.9 | |
| 20260505115212 | 13 | 0.0 | 0.0 | 0.00 | 0.00 | 0.00 | 56 | 1013.0 | |
| 20260505114130 | 13 | 0.0 | 0.0 | 0.00 | 0.00 | 0.00 | 56 | 1013.0 | |
| 20260505113128 | 13 | 0.0 | 0.0 | 0.00 | 0.00 | 0.00 | 56 | 1013.0 | |
| 20260505112125 | 13 | 0.0 | 0.0 | 0.00 | 0.00 | 0.00 | 55 | 1013.1 | |
| 20260505111124 | 13 | 0.0 | 0.0 | 0.00 | 0.00 | 0.00 | 55 | 1013.1 | |
| 20260505110121 | 13 | 0.0 | 0.0 | 0.00 | 0.00 | 0.00 | 55 | 1013.1 | |
| 20260505102113 | 14 | 0.0 | 0.0 | 0.00 | 0.00 | 0.00 | 57 | 1013.1 | |
| 20260505101111 | 13 | 0.0 | 0.0 | 0.00 | 0.00 | 0.00 | 58 | 1013.2 | |
| 20260505100150 | 13 | 0.0 | 0.0 | 0.00 | 0.00 | 0.00 | 61 | 1013.2 | |
| 20260505095148 | 12 | 0.0 | 0.0 | 0.00 | 0.00 | 0.00 | 63 | 1013.3 | |
| 20260505094106 | 12 | 0.0 | 0.0 | 0.00 | 0.00 | 0.00 | 64 | 1013.3 | |
| 20260505093107 | 12 | 0.0 | 0.0 | 0.00 | 0.00 | 0.00 | 66 | 1013.3 | |
| 20260505092141 | 11 | 0.0 | 0.0 | 0.00 | 0.00 | 0.00 | 68 | 1013.3 | |
| 20260505091100 | 11 | 0.0 | 0.0 | 0.00 | 0.00 | 0.00 | 69 | 1013.3 | |
| 20260505090138 | 11 | 0.0 | 0.0 | 0.00 | 0.00 | 0.00 | 70 | 1013.4 | |
| 20260505085055 | 11 | 0.0 | 0.0 | 0.00 | 0.00 | 0.00 | 70 | 1013.3 | |
| 20260505084054 | 11 | 0.0 | 0.0 | 0.00 | 0.00 | 0.00 | 72 | 1013.4 | |
| 20260505083133 | 11 | 0.0 | 0.0 | 0.00 | 0.00 | 0.00 | 73 | 1013.5 | |
| 20260505082050 | 10 | 0.0 | 0.0 | 0.00 | 0.00 | 0.00 | 76 | 1013.5 | |
| 20260505081048 | 10 | 0.0 | 0.0 | 0.00 | 0.00 | 0.00 | 77 | 1013.5 | |
| 20260505080045 | 9 | 0.0 | 0.0 | 0.00 | 0.00 | 0.00 | 79 | 1013.4 | |
| 20260505075044 | 8 | 0.0 | 0.0 | 0.00 | 0.00 | 0.00 | 81 | 1013.5 | |
| 20260505074042 | 8 | 0.0 | 0.0 | 0.00 | 0.00 | 0.00 | 82 | 1013.4 | |
| 20260505073040 | 8 | 0.0 | 0.0 | 0.00 | 0.00 | 0.00 | 83 | 1013.4 | |
| 20260505072039 | 7 | 0.0 | 0.0 | 0.00 | 0.00 | 0.00 | 85 | 1013.4 | |
| 20260505071036 | 7 | 0.0 | 0.0 | 0.00 | 0.00 | 0.00 | 86 | 1013.5 | |
| 20260505070034 | 7 | 0.0 | 0.0 | 0.00 | 0.00 | 0.00 | 87 | 1013.5 | |
| 20260505065112 | 6 | 0.0 | 0.0 | 0.00 | 0.00 | 0.00 | 87 | 1013.5 | |
| 20260505064030 | 6 | 0.0 | 0.0 | 0.00 | 0.00 | 0.00 | 87 | 1013.5 | |
| 20260505063028 | 6 | 0.0 | 0.0 | 0.00 | 0.00 | 0.00 | 87 | 1013.5 | |
| 20260505062026 | 5 | 0.0 | 0.0 | 0.00 | 0.00 | 0.00 | 86 | 1013.6 | |
| 20260505061023 | 5 | 0.0 | 0.0 | 0.00 | 0.00 | 0.00 | 86 | 1013.6 | |
| 20260505060022 | 5 | 0.0 | 0.0 | 0.00 | 0.00 | 0.00 | 86 | 1013.6 | |
| 20260505055019 | 5 | 0.0 | 0.0 | 0.00 | 0.00 | 0.00 | 86 | 1013.6 | |
| 20260505054018 | 5 | 0.0 | 0.0 | 0.00 | 0.00 | 0.00 | 86 | 1013.6 | |
| 20260505053123 | 5 | 0.0 | 0.0 | 0.00 | 0.00 | 0.00 | 85 | 1013.5 | |
| 20260505052053 | 5 | 0.0 | 0.0 | 0.00 | 0.00 | 0.00 | 85 | 1013.5 | |
| 20260505051012 | 5 | 0.0 | 0.0 | 0.00 | 0.00 | 0.00 | 85 | 1013.5 | |
| 20260505041000 | 5 | 0.0 | 0.0 | 0.00 | 0.00 | 0.00 | 84 | 1013.2 | |
| 20260505035957 | 5 | 0.0 | 0.0 | 0.00 | 0.00 | 0.00 | 84 | 1013.3 | |
| 20260505034956 | 5 | 0.0 | 0.0 | 0.00 | 0.00 | 0.00 | 84 | 1013.3 | |
| 20260505033954 | 6 | 0.0 | 0.0 | 0.00 | 0.00 | 0.00 | 84 | 1013.4 | |
| 20260505033031 | 6 | 0.0 | 0.0 | 0.00 | 0.00 | 0.00 | 84 | 1013.3 | |
| 20260505031950 | 6 | 0.0 | 0.0 | 0.00 | 0.00 | 0.00 | 85 | 1013.4 | |
| 20260505030949 | 6 | 0.0 | 0.0 | 0.00 | 0.00 | 0.00 | 85 | 1013.4 | |
| 20260505025945 | 6 | 0.0 | 0.0 | 0.00 | 0.00 | 0.00 | 85 | 1013.5 |